Back to catalog

SEA LAUNCH DEMO

AliveScienceGTO
NORAD 25661·PAYLOAD· XX

Launched Mar 28, 1999 from Sea Launch Platform

Loading…

TLE

AgingSource: Space-Track

Epoch: Sep 14, 2026, 12:13 UTC

1 25661U 99014A   26257.50955918 -.00000127  00000-0  72105-3 0  9996
2 25661   1.2999 319.7382 7161432   4.6184 359.5901  2.23255845224109

Track SEA LAUNCH DEMO in real time with AllMySat

Download on the App Store